TimeCDT,TemperatureF,Dew PointF,Humidity,Sea Level PressureIn,VisibilityMPH,Wind Direction,Wind SpeedMPH,Gust SpeedMPH,PrecipitationIn,Events,Conditions,WindDirDegrees,DateUTC
12:16 AM,60.3,53.6,79,30.05,10.0,West,3.5,-,N/A,,Clear,260,2013-08-01 05:16:00
12:36 AM,58.5,52.5,81,30.06,10.0,WSW,3.5,-,N/A,,Clear,250,2013-08-01 05:36:00
12:56 AM,56.3,51.8,85,30.06,10.0,Calm,Calm,-,N/A,,Clear,0,2013-08-01 05:56:00
1:16 AM,55.2,52.0,89,30.06,10.0,West,3.5,-,N/A,,Clear,260,2013-08-01 06:16:00
1:36 AM,57.6,52.3,83,30.05,10.0,West,3.5,-,N/A,,Clear,260,2013-08-01 06:36:00
1:56 AM,57.2,53.2,87,30.06,10.0,West,3.5,-,N/A,,Clear,260,2013-08-01 06:56:00
2:16 AM,55.4,52.5,90,30.06,10.0,Calm,Calm,-,N/A,,Clear,0,2013-08-01 07:16:00
2:36 AM,54.7,52.2,91,30.05,10.0,West,3.5,-,N/A,,Clear,260,2013-08-01 07:36:00
2:56 AM,54.0,51.6,92,30.05,10.0,Calm,Calm,-,N/A,,Clear,0,2013-08-01 07:56:00
3:16 AM,54.0,52.3,94,30.05,10.0,West,3.5,-,N/A,,Clear,260,2013-08-01 08:16:00
3:36 AM,53.4,51.3,92,30.05,10.0,Calm,Calm,-,N/A,,Clear,0,2013-08-01 08:36:00
3:56 AM,52.9,51.3,94,30.05,10.0,Calm,Calm,-,N/A,,Clear,0,2013-08-01 08:56:00
4:16 AM,54.1,52.2,93,30.05,10.0,Calm,Calm,-,N/A,,Clear,0,2013-08-01 09:16:00
4:36 AM,54.9,52.0,90,30.05,10.0,Calm,Calm,-,N/A,,Clear,0,2013-08-01 09:36:00
4:56 AM,53.2,51.4,94,30.05,10.0,Calm,Calm,-,N/A,,Clear,0,2013-08-01 09:56:00
5:16 AM,52.5,51.1,95,30.05,10.0,Calm,Calm,-,N/A,,Clear,0,2013-08-01 10:16:00
5:36 AM,52.0,50.7,95,30.05,10.0,Calm,Calm,-,N/A,,Clear,0,2013-08-01 10:36:00
5:56 AM,51.8,50.7,96,30.05,10.0,WSW,3.5,-,N/A,,Clear,250,2013-08-01 10:56:00
6:16 AM,52.9,51.3,94,30.05,10.0,Calm,Calm,-,N/A,,Clear,0,2013-08-01 11:16:00
6:36 AM,52.7,51.1,94,30.05,10.0,Calm,Calm,-,N/A,,Clear,0,2013-08-01 11:36:00
6:56 AM,56.3,53.1,89,30.05,10.0,West,3.5,-,N/A,,Clear,260,2013-08-01 11:56:00
7:16 AM,59.2,53.8,82,30.05,10.0,WSW,4.6,-,N/A,,Scattered Clouds,250,2013-08-01 12:16:00
7:36 AM,59.9,54.1,81,30.05,10.0,West,4.6,-,N/A,,Scattered Clouds,260,2013-08-01 12:36:00
7:56 AM,61.2,55.6,82,30.05,10.0,West,3.5,-,N/A,,Scattered Clouds,280,2013-08-01 12:56:00
8:16 AM,63.5,56.5,78,30.05,10.0,WNW,5.8,-,N/A,,Scattered Clouds,290,2013-08-01 13:16:00
8:36 AM,64.9,57.0,75,30.05,10.0,West,4.6,-,N/A,,Clear,270,2013-08-01 13:36:00
8:56 AM,67.1,57.0,70,30.04,10.0,West,4.6,-,N/A,,Clear,280,2013-08-01 13:56:00
9:17 AM,68.9,57.2,66,30.04,10.0,WNW,4.6,-,N/A,,Clear,290,2013-08-01 14:17:00
9:36 AM,70.7,55.9,59,30.04,10.0,West,5.8,-,N/A,,Clear,280,2013-08-01 14:36:00
9:56 AM,72.0,56.5,58,30.03,10.0,WNW,4.6,-,N/A,,Clear,290,2013-08-01 14:56:00
10:16 AM,72.9,55.9,55,30.04,10.0,WNW,4.6,-,N/A,,Clear,290,2013-08-01 15:16:00
10:36 AM,73.2,57.6,58,30.04,10.0,WSW,3.5,-,N/A,,Scattered Clouds,240,2013-08-01 15:36:00
10:56 AM,73.4,56.5,55,30.04,10.0,West,3.5,-,N/A,,Mostly Cloudy,270,2013-08-01 15:56:00
11:16 AM,73.8,57.0,56,30.04,10.0,Calm,Calm,-,N/A,,Scattered Clouds,0,2013-08-01 16:16:00
11:36 AM,74.3,56.7,54,30.03,10.0,West,3.5,-,N/A,,Clear,280,2013-08-01 16:36:00
11:56 AM,75.0,58.1,56,30.03,10.0,WSW,4.6,-,N/A,,Clear,240,2013-08-01 16:56:00
12:16 PM,75.6,57.9,54,30.03,10.0,Calm,Calm,-,N/A,,Mostly Cloudy,0,2013-08-01 17:16:00
12:36 PM,75.7,54.9,48,30.02,10.0,Calm,Calm,-,N/A,,Scattered Clouds,0,2013-08-01 17:36:00
12:56 PM,76.5,54.9,47,30.01,10.0,Calm,Calm,-,N/A,,Scattered Clouds,0,2013-08-01 17:56:00
1:16 PM,77.0,54.0,45,30.00,10.0,Calm,Calm,-,N/A,,Clear,0,2013-08-01 18:16:00
1:36 PM,77.5,56.3,48,30.00,10.0,Calm,Calm,-,N/A,,Clear,0,2013-08-01 18:36:00
1:56 PM,77.2,54.0,44,30.00,10.0,West,5.8,-,N/A,,Scattered Clouds,280,2013-08-01 18:56:00
2:16 PM,76.8,55.8,48,29.99,10.0,West,4.6,-,N/A,,Scattered Clouds,270,2013-08-01 19:16:00
2:36 PM,76.1,56.7,51,29.99,10.0,SW,3.5,-,N/A,,Mostly Cloudy,230,2013-08-01 19:36:00
2:56 PM,77.2,56.8,49,29.98,10.0,Calm,Calm,-,N/A,,Mostly Cloudy,0,2013-08-01 19:56:00
3:16 PM,78.3,56.7,47,29.97,10.0,West,3.5,-,N/A,,Mostly Cloudy,280,2013-08-01 20:16:00
3:36 PM,78.6,56.8,47,29.96,10.0,South,4.6,16.1,N/A,,Scattered Clouds,190,2013-08-01 20:36:00
3:56 PM,78.1,57.0,48,29.95,10.0,SW,5.8,-,N/A,,Scattered Clouds,220,2013-08-01 20:56:00
4:16 PM,79.0,57.2,47,29.95,10.0,WSW,5.8,-,N/A,,Scattered Clouds,250,2013-08-01 21:16:00
4:36 PM,79.7,58.6,48,29.94,10.0,SW,3.5,-,N/A,,Scattered Clouds,220,2013-08-01 21:36:00
4:56 PM,79.5,58.1,48,29.93,10.0,West,5.8,-,N/A,,Scattered Clouds,260,2013-08-01 21:56:00
5:16 PM,77.2,56.8,49,29.93,10.0,WSW,3.5,-,N/A,,Scattered Clouds,240,2013-08-01 22:16:00
5:36 PM,79.7,57.7,47,29.92,10.0,SSW,4.6,-,N/A,,Scattered Clouds,200,2013-08-01 22:36:00
5:56 PM,79.2,58.3,49,29.91,10.0,WSW,4.6,-,N/A,,Clear,250,2013-08-01 22:56:00
6:16 PM,78.8,57.4,48,29.91,10.0,WSW,3.5,-,N/A,,Clear,240,2013-08-01 23:16:00
6:36 PM,77.5,57.2,49,29.91,10.0,West,4.6,-,N/A,,Clear,260,2013-08-01 23:36:00
6:56 PM,78.1,58.3,50,29.91,10.0,WSW,5.8,-,N/A,,Clear,250,2013-08-01 23:56:00
7:16 PM,77.2,58.5,52,29.90,10.0,WSW,4.6,-,N/A,,Clear,240,2013-08-02 00:16:00
7:37 PM,76.6,58.5,53,29.90,10.0,West,3.5,-,N/A,,Clear,260,2013-08-02 00:37:00
7:56 PM,74.8,59.7,59,29.89,10.0,Calm,Calm,-,N/A,,Clear,0,2013-08-02 00:56:00
8:16 PM,72.3,61.2,68,29.89,10.0,Calm,Calm,-,N/A,,Clear,0,2013-08-02 01:16:00
8:36 PM,69.6,61.5,75,29.89,10.0,Calm,Calm,-,N/A,,Scattered Clouds,0,2013-08-02 01:36:00
8:56 PM,67.5,62.1,83,29.89,10.0,Calm,Calm,-,N/A,,Scattered Clouds,0,2013-08-02 01:56:00
9:16 PM,66.4,62.2,86,29.89,10.0,Calm,Calm,-,N/A,,Mostly Cloudy,0,2013-08-02 02:16:00
9:36 PM,66.0,61.7,86,29.89,10.0,Calm,Calm,-,N/A,,Scattered Clouds,0,2013-08-02 02:36:00
9:56 PM,64.8,61.2,88,29.90,10.0,WNW,3.5,-,N/A,,Clear,290,2013-08-02 02:56:00
10:16 PM,66.0,59.2,79,29.91,10.0,WNW,4.6,-,N/A,,Clear,290,2013-08-02 03:16:00
10:36 PM,65.7,59.2,80,29.91,10.0,WNW,3.5,-,N/A,,Clear,290,2013-08-02 03:36:00
10:56 PM,65.3,58.3,78,29.91,10.0,WNW,3.5,-,N/A,,Clear,290,2013-08-02 03:56:00
11:16 PM,64.8,57.7,78,29.91,10.0,WNW,4.6,-,N/A,,Clear,290,2013-08-02 04:16:00
11:36 PM,65.3,57.4,76,29.91,10.0,West,4.6,-,N/A,,Clear,280,2013-08-02 04:36:00
11:56 PM,64.4,57.7,79,29.90,10.0,WNW,4.6,-,N/A,,Clear,290,2013-08-02 04:56:00